Location: Unspecified
(0.0000°N, 0.0000°E)
Time: 12:21:13
(UTC+02:00)

Amateur Radio Satellites - All Passes

Search period start: 30 September 2014 11:51
Search period end: 01 October 2014 11:51
Location: Unspecified, 0.0000°N, 0.0000°E

Satellite Date Start Highest point End Downlink Frequencies (MHz)
Time Altitude Azimuth
HO-68 30 Sep 11:53:36 11:58:53 22° 285° (WNW) 12:04:12 435.675 MHz FM
Oscar 11 30 Sep 11:54:52 11:58:43 33° 282° (WNW) 12:02:34 145.825 FM, Beacon 2401.500 USB
FUNcube-1 30 Sep 12:15:45 12:20:03 54° 282° (WNW) 12:24:15 145.950 - 145.970 MHz USB
RS-15 30 Sep 12:42:59 12:49:26 16° 68° (ENE) 12:55:58 29.354 - 29.394 USB, Beacon 29.352 USB
ZACube-1 30 Sep 13:03:02 13:04:54 13° 283° (WNW) 13:06:45 437.345 MHz
Saudisat 1A 30 Sep 13:08:13 13:09:53 12° 113° (ESE) 13:11:33 436.775 MHz
JAS-1B 30 Sep 14:10:12 14:14:12 14° 79° (E) 14:17:57 435.800 - 435.900 CW/SSB
Saudisat 1A 30 Sep 14:45:24 14:49:12 29° 292° (WNW) 14:53:00 436.775 MHz
RS-15 30 Sep 14:49:53 15:01:28 78° 250° (WSW) 15:13:37 29.354 - 29.394 USB, Beacon 29.352 USB
Oscar 19 30 Sep 14:53:25 14:58:25 48° 78° (ENE) 15:03:24 437.125 CW, 437.150 USB
ITAMSAT 1 30 Sep 15:04:11 15:07:57 21° 77° (ENE) 15:11:42 435.822 SSB
Uribyol 2 30 Sep 15:05:04 15:09:05 23° 77° (ENE) 15:13:05 436.500 FM
Oscar 16 30 Sep 15:34:15 15:39:16 51° 257° (WSW) 15:44:17 437.025 USB, Beacon 2401.1428
AO-27 30 Sep 15:40:59 15:46:06 62° 77° (ENE) 15:51:11 436.795 MHz FM
AO-Echo 30 Sep 15:52:09 15:56:56 75° 258° (WSW) 16:01:37 ?
JAS-1B 30 Sep 15:55:29 16:04:46 72° 256° (WSW) 16:12:37 435.800 - 435.900 CW/SSB
Gurwin Techsat 1B 30 Sep 16:00:22 16:05:20 41° 78° (ENE) 16:10:16 435.225 FM
KITSAT 1 30 Sep 16:04:05 16:09:53 22° 111° (ESE) 16:15:39 435.175 FM
PANSAT 30 Sep 16:14:20 16:17:50 32° 150° (SSE) 16:21:19 not established
TMSAT-1 30 Sep 16:29:23 16:34:37 62° 78° (ENE) 16:39:49 436.925 FM
ITAMSAT 1 30 Sep 16:43:04 16:47:10 24° 257° (WSW) 16:51:16 435.822 SSB
Uribyol 2 30 Sep 16:44:25 16:48:17 22° 257° (WSW) 16:52:09 436.500 FM
AO-7 30 Sep 16:52:46 16:59:07 25° 73° (ENE) 17:05:24 29.400 - 29.500 MHz
Uosat F 30 Sep 17:13:43 17:17:17 20° 77° (ENE) 17:20:50 435.120 FM
MaSat-1 30 Sep 17:26:35 17:28:10 15° 71° (ENE) 17:29:42 437.345 MHz
OPAL 30 Sep 17:40:44 17:44:04 18° 104° (ESE) 17:47:23 ?
Gurwin Techsat 1B 30 Sep 17:42:54 17:45:00 12° 257° (WSW) 17:47:06 435.225 FM
PANSAT 30 Sep 17:54:26 17:57:56 32° 330° (NNW) 18:01:26 not established
KITSAT 1 30 Sep 17:57:18 18:04:58 47° 290° (WNW) 18:12:38 435.175 FM
Hamsat 30 Sep 18:38:53 18:41:18 15° 78° (ENE) 18:43:41 145.90 MHz
AO-7 30 Sep 18:43:44 18:51:31 45° 254° (WSW) 18:59:17 29.400 - 29.500 MHz
Uosat F 30 Sep 18:51:53 18:55:48 23° 257° (WSW) 18:59:42 435.120 FM
OPAL 30 Sep 19:18:37 19:22:41 26° 284° (WNW) 19:26:45 ?
SO-50 30 Sep 19:29:51 19:34:13 67° 292° (WNW) 19:38:35 436.795 FM
JAS-2 30 Sep 19:31:04 19:36:34 86° 258° (WSW) 19:41:44 435.800 - 435.900 CW/SSB, 435.910 FM
UOSAT-12 30 Sep 20:04:17 20:06:11 13° 112° (ESE) 20:08:06 437.025 FM, 437.400 FM
Hamsat 30 Sep 20:13:32 20:16:59 23° 258° (WSW) 20:20:25 145.90 MHz
STRAND 1 30 Sep 20:17:56 20:23:01 63° 103° (ESE) 20:28:07 ?
ISS 30 Sep 21:07:07 21:10:27 78° 306° (NW) 21:13:45 145.800 FM
AO-40 30 Sep 21:10:43 03:07:36 65° 83° (E) 04:43:37 Beacon 2401.320
Sapphire 30 Sep 21:10:53 21:15:48 36° 71° (ENE) 21:20:42 437.095 MHz 1200 baud AX-25 AFSK
SO-67 30 Sep 21:22:18 21:24:54 20° 259° (W) 21:27:29 435.3500 MHz FM
PCSat 30 Sep 21:36:03 21:41:26 80° 71° (ENE) 21:46:50 145.825 MHz
UOSAT-12 30 Sep 21:42:08 21:46:03 30° 292° (WNW) 21:50:01 437.025 FM, 437.400 FM
HO-68 30 Sep 21:56:55 22:03:10 33° 75° (ENE) 22:09:22 435.675 MHz FM
Oscar 11 30 Sep 22:29:52 22:32:01 14° 78° (ENE) 22:34:11 145.825 FM, Beacon 2401.500 USB
Sapphire 30 Sep 22:56:01 22:58:57 15° 250° (WSW) 23:01:54 437.095 MHz 1200 baud AX-25 AFSK
UKube-1 30 Sep 22:56:40 23:00:51 47° 78° (ENE) 23:04:59 145.840 MHz, 145.915 MHz
ZACube-1 30 Sep 23:35:16 23:39:20 37° 78° (ENE) 23:43:28 437.345 MHz
HO-68 30 Sep 23:44:47 23:50:32 27° 255° (WSW) 23:56:17 435.675 MHz FM
Oscar 11 01 Oct 00:04:23 00:07:56 25° 258° (WSW) 00:11:30 145.825 FM, Beacon 2401.500 USB
FUNcube-1 01 Oct 00:26:23 00:30:27 38° 259° (WSW) 00:34:36 145.950 - 145.970 MHz USB
RS-15 01 Oct 00:28:14 00:32:12 12° 115° (ESE) 00:36:05 29.354 - 29.394 USB, Beacon 29.352 USB
Saudisat 1A 01 Oct 01:12:54 01:15:57 19° 68° (ENE) 01:19:01 436.775 MHz
JAS-1B 01 Oct 02:18:32 02:21:02 12° 109° (ESE) 02:23:39 435.800 - 435.900 CW/SSB
Oscar 16 01 Oct 02:29:54 02:34:03 25° 103° (ESE) 02:38:11 437.025 USB, Beacon 2401.1428
RS-15 01 Oct 02:33:05 02:44:39 89° 290° (WNW) 02:55:42 29.354 - 29.394 USB, Beacon 29.352 USB
AO-Echo 01 Oct 02:44:24 02:47:24 15° 103° (ESE) 02:50:25 ?
Saudisat 1A 01 Oct 02:52:08 02:55:16 19° 248° (WSW) 02:58:25 436.775 MHz
Oscar 19 01 Oct 03:27:07 03:32:10 64° 282° (WNW) 03:37:14 437.125 CW, 437.150 USB
TMSAT-1 01 Oct 03:31:49 03:33:07 11° 103° (ESE) 03:34:24 436.925 FM
ITAMSAT 1 01 Oct 03:37:54 03:43:00 55° 103° (ESE) 03:48:06 435.822 SSB
Uribyol 2 01 Oct 03:38:52 03:44:00 62° 103° (ESE) 03:49:09 436.500 FM
PANSAT 01 Oct 04:01:42 04:05:11 33° 30° (NNE) 04:08:40 not established
JAS-1B 01 Oct 04:04:41 04:10:50 59° 282° (WNW) 04:18:10 435.800 - 435.900 CW/SSB
Oscar 16 01 Oct 04:09:33 04:13:07 19° 283° (WNW) 04:16:42 437.025 USB, Beacon 2401.1428
KITSAT 1 01 Oct 04:11:15 04:17:53 28° 70° (ENE) 04:24:29 435.175 FM
AO-27 01 Oct 04:16:17 04:21:18 49° 283° (WNW) 04:26:21 436.795 MHz FM
AO-Echo 01 Oct 04:21:12 04:25:51 34° 282° (WNW) 04:30:36 ?
Gurwin Techsat 1B 01 Oct 04:38:34 04:43:49 69° 282° (WNW) 04:49:07 435.225 FM
RS-15 01 Oct 04:54:04 04:56:44 11° 293° (WNW) 04:59:24 29.354 - 29.394 USB, Beacon 29.352 USB
TMSAT-1 01 Oct 05:07:42 05:12:44 45° 282° (WNW) 05:17:47 436.925 FM
MaSat-1 01 Oct 05:10:42 05:14:41 28° 106° (ESE) 05:18:48 437.345 MHz
AO-7 01 Oct 05:17:44 05:25:20 41° 106° (ESE) 05:32:57 29.400 - 29.500 MHz
PANSAT 01 Oct 05:41:51 05:45:16 31° 210° (SSW) 05:48:42 not established
Uosat F 01 Oct 05:42:09 05:46:58 47° 103° (ESE) 05:51:47 435.120 FM
SO-50 01 Oct 06:05:17 06:07:15 12° 67° (ENE) 06:09:12 436.795 FM
KITSAT 1 01 Oct 06:05:45 06:12:56 36° 250° (WSW) 06:20:10 435.175 FM
OPAL 01 Oct 06:10:49 06:15:45 45° 76° (ENE) 06:20:41 ?
Hamsat 01 Oct 06:45:39 06:48:25 17° 102° (ESE) 06:51:11 145.90 MHz
MaSat-1 01 Oct 06:48:04 06:50:57 16° 288° (WNW) 06:53:53 437.345 MHz
JAS-2 01 Oct 07:00:54 07:08:13 55° 103° (ESE) 07:15:51 435.800 - 435.900 CW/SSB, 435.910 FM
AO-7 01 Oct 07:11:08 07:17:45 27° 286° (WNW) 07:24:25 29.400 - 29.500 MHz
SO-50 01 Oct 07:43:07 07:47:35 36° 248° (WSW) 07:52:02 436.795 FM
OPAL 01 Oct 07:53:10 07:54:20 11° 255° (WSW) 07:55:30 ?
UOSAT-12 01 Oct 08:13:04 08:16:37 22° 67° (ENE) 08:20:07 437.025 FM, 437.400 FM
Hamsat 01 Oct 08:21:22 08:24:06 17° 281° (WNW) 08:26:52 145.90 MHz
PCSat 01 Oct 08:31:18 08:34:36 16° 110° (ESE) 08:37:54 145.825 MHz
ISS 01 Oct 08:42:36 08:45:52 62° 55° (NE) 08:49:09 145.800 FM
JAS-2 01 Oct 08:48:06 08:52:55 19° 282° (WNW) 08:57:55 435.800 - 435.900 CW/SSB, 435.910 FM
STRAND 1 01 Oct 08:50:55 08:55:50 50° 257° (WSW) 09:00:45 ?
SO-67 01 Oct 09:06:03 09:09:15 37° 281° (W) 09:12:28 435.3500 MHz FM
Sapphire 01 Oct 09:46:49 09:52:10 72° 289° (WNW) 09:57:32 437.095 MHz 1200 baud AX-25 AFSK
HO-68 01 Oct 09:48:47 09:54:42 28° 105° (ESE) 10:00:35 435.675 MHz FM
UOSAT-12 01 Oct 09:53:28 09:56:29 17° 248° (WSW) 09:59:29 437.025 FM, 437.400 FM
PCSat 01 Oct 10:12:59 10:17:45 32° 289° (WNW) 10:22:31 145.825 MHz
Oscar 11 01 Oct 10:38:15 10:41:09 18° 102° (ESE) 10:44:03 145.825 FM, Beacon 2401.500 USB
FUNcube-1 01 Oct 11:03:33 11:05:17 12° 101° (ESE) 11:07:00 145.950 - 145.970 MHz USB
UKube-1 01 Oct 11:06:11 11:10:30 66° 102° (ESE) 11:14:51 145.840 MHz, 145.915 MHz
HO-68 01 Oct 11:35:52 11:42:04 32° 285° (WNW) 11:48:18 435.675 MHz FM
